Showing default

GALILEO 19 (2C5), 43055

Orbit data source: Space-Track

GALILEO 19 (2C5), 43055 is a payload satellite owned by GNSS Agency (ESA) that was launched on Tue, 12 Dec 2017 UTC via an ARIANE 5ES launch vehicle from the French Guiana (FRGUI). Payload-class satellites include a variety of spacecraft equipped with specific instruments for various scientific and technological missions. These include communications satellites like Starlink; space stations such as the ISS; scientific satellites like the Hubble; Earth observation satellites from companies like Planet Labs, Umbra, and HawkEye 360; GPS; miniature CubeSats for education and research; and military/defense satellites.

Loading next visibility...
Identifier
43055, 2017-079A
Orbit
Active
Last TLE update
3 days ago
Origin
Manufacturer
OHB
Mission
Operational Civil Navigation
Bus & Motor
GALILEOSAT, AOCS
Mass
715 kg wet, 700 kg dry
Launch date (UTC)
2017-12-12 (8 years ago)
Launch vehicle
ARIANE 5ES
Launch site
French Guiana (FRGUI)
Object type
Payload
Rocket body
Debris
Shape & HBR
Box + 2 Pan, 14.71 m
Radar Cross Section
9.223 m², Large (>1 m²)

Expand to show TLE details & history

TLE from 3 days ago
0 GALILEO 19 (2C5)
1 43055U 17079A   25186.93196791  .00000063  00000-0  00000-0 0  9997
2 43055  55.1859 231.0334 0003558 259.3822 100.6670  1.70474604 47082
Epoch: 2025-07-05T22:22Z
TLE epoch observation values (Epoch: 2025-07-05T22:22:02.027Z)
Latitude
0.00003°
Longitude
-28.62326°
Altitude
23,224.33 km
Speed
3.669 km/s
True Right ascension
15h 24m 11s
True Declination
0° 00' 00"
Sunlit
Object was in daylight at epoch
Visualization orbit readout
Latitude
-51.66439°
Longitude
-90.19633°
Altitude
23,231.62 km
Speed
3.67 km/s
Apparent Right ascension
10h 40m 16s
Apparent Declination
-51° 06' 45"
Sunlit
Object is in daylight
Visualization observer readout
Local Sidereal Time
20:09:00
Azimuth
234.086° WSW
Elevation
-61.623°
Doppler factor
1
Orbital elements
Apogee altitude
23,232.647 km
Perigee altitude
23,211.583 km
Semi-major axis
29,600.252 km
Eccentricity
0.00036
Inclination
55.1859°
RAAN
231.0334°
Arg. of periapsis
259.3822°
True anomaly
Unknown
Mean anomaly
100.667°
Eccentric anomaly
Unknown
Mean motion
0.42619 °/min
Orbital period
844.7 mins
BSTAR
0
Loading maneuver chart data...
Loading SW <> Apogee altitude chart data...
Loading historical data...
Loading historical data...
Loading historical data...
Loading historical data...
Loading historical data...
Loading historical data...
Loading historical data...
Other satellites on launch #79 in the year 2017 (2017-12-12 UTC)

GALILEO 19 (2C5) Visibility forecast

Observer location: undefined°, undefined°

Span
Click to sort rows by Start time (UTC) header in descending order
Start Az.
Max El. time (UTC)
Max El. Az.
Max El.
End time (UTC)
End Az.
315 mins2025-07-09 13:24:24.779Z315.211° NNW2025-07-09 16:03:24.779Z278.638° WNW36.399°2025-07-09 18:39:24.779Z221.949° SW
335 mins2025-07-09 23:59:24.779Z144.977° SSE2025-07-10 02:43:24.779Z84.55° E38.552°2025-07-10 05:34:24.779Z48.27° ENE
|